Location: Nicosia
(35.1670°N, 33.3670°E)
Time: 21:21:28
(UTC+02:00)

Hubble Space Telescope - Pass Details

Date: 02 December 2023
Orbit: 516 x 519 km, 28.5° (Epoch: 27 February)

Event Time Altitude Azimuth Distance (km) Brightness Sun altitude
Rises 18:26:24 0° 259° (W) 2,619 5.8 -22.4°
Reaches altitude 10° 18:29:18 10° 237° (WSW) 1,733 4.3 -23.0°
Maximum altitude 18:31:49 16° 198° (SSW) 1,390 3.2 -23.5°
Enters shadow 18:33:15 14° 173° (S) 1,512 3.1 -23.8°
